Voltar ao catálogo

METEOR 2-8 DEB

AtivoPO
NORAD 36859·DEBRIS·🇷🇺 Russia

Lançado Mar 25, 1982 de Plesetsk Cosmodrome

Loading…

Próximas Passagens (próximas 24 horas)

TLE

AtualizadoSource: Space-Track

Época: Sep 14, 2026, 09:22 UTC

1 36859U 82025AW  26257.39082061  .00000868  00000-0  36839-3 0  9993
2 36859  82.5147 139.3559 0032565 212.1224 147.7975 14.24128357115701

Acompanhe METEOR 2-8 DEB em tempo real com AllMySat

Download on the App Store